{"data":{"norad_id":64670,"epoch":"2026-09-20T09:03:36.686016Z","epoch_age_seconds":142153,"freshness":"FRESH","line1":"1 64670U 25139G   26263.37750794  .00010433  00000+0  31972-3 0  9999","line2":"2 64670  53.1593 298.3426 0000835  82.7932 277.3165 15.34376107 70153","mean_motion":15.34376107,"eccentricity":8.35e-5,"inclination_deg":53.1593,"raan_deg":298.3426,"arg_perigee_deg":82.7932,"mean_anomaly_deg":277.3165,"bstar":0.00031972,"rev_number":7015,"period_min":93.849219459985,"perigee_km":462.20304006996,"apogee_km":463.34547224974,"semimajor_km":6840.9112561599,"source":"CELESTRAK","updated_at":"2026-09-21T09:00:35.397979Z"}}